Terug naar catalogus

FENGYUN 1C DEB *

ActiefPO
NORAD 47100·DEBRIS·🇨🇳 China

Gelanceerd May 10, 1999 vanaf Taiyuan Satellite Launch Center

Loading…

Volgende Passages (komende 24 uur)

TLE

VersSource: Space-Track

Epoch: Sep 14, 2026, 01:10 UTC

1 47100U 99025FBY 26257.04922238  .00004149  00000-0  92584-3 0  9998
2 47100  99.0129 102.7358 0081330 244.3232 114.9547 14.55401077307684

Volg FENGYUN 1C DEB * in realtime met AllMySat

Download on the App Store